Year,Month,Day,Hour,Minute,Value (Times are PST for temperature in C)
2010,08,11,00,00,14.70
2010,08,11,00,01,14.70
2010,08,11,00,02,14.70
2010,08,11,00,03,14.70
2010,08,11,00,04,14.80
2010,08,11,00,05,14.80
2010,08,11,00,06,14.90
2010,08,11,00,07,15.00
2010,08,11,00,08,15.00
2010,08,11,00,09,15.00
2010,08,11,00,10,15.00
2010,08,11,00,11,15.00
2010,08,11,00,12,15.00
2010,08,11,00,13,15.00
2010,08,11,00,14,15.00
2010,08,11,00,15,15.00
2010,08,11,00,16,15.00
2010,08,11,00,17,15.00
2010,08,11,00,18,15.00
2010,08,11,00,19,15.00
2010,08,11,00,20,15.00
2010,08,11,00,21,15.00
2010,08,11,00,22,15.00
2010,08,11,00,23,15.00
2010,08,11,00,24,15.00
2010,08,11,00,25,15.00
2010,08,11,00,26,15.00
2010,08,11,00,27,15.00
2010,08,11,00,28,14.90
2010,08,11,00,29,14.90
2010,08,11,00,30,14.80
2010,08,11,00,31,14.80
2010,08,11,00,32,14.80
2010,08,11,00,33,14.80
2010,08,11,00,34,14.70
2010,08,11,00,35,14.70
2010,08,11,00,36,14.60
2010,08,11,00,37,14.60
2010,08,11,00,38,14.60
2010,08,11,00,39,14.60
2010,08,11,00,40,14.50
2010,08,11,00,41,14.50
2010,08,11,00,42,14.40
2010,08,11,00,43,14.40
2010,08,11,00,44,14.40
2010,08,11,00,45,14.40
2010,08,11,00,46,14.40
2010,08,11,00,47,14.30
2010,08,11,00,48,14.30
2010,08,11,00,49,14.30
2010,08,11,00,50,14.30
2010,08,11,00,51,14.30
2010,08,11,00,52,14.30
2010,08,11,00,53,14.30
2010,08,11,00,54,14.20
2010,08,11,00,55,14.20
2010,08,11,00,56,14.20
2010,08,11,00,57,14.20
2010,08,11,00,58,14.20
2010,08,11,00,59,14.20
2010,08,11,01,00,14.20
2010,08,11,01,01,14.20
2010,08,11,01,02,14.10
2010,08,11,01,03,14.10
2010,08,11,01,04,14.10
2010,08,11,01,05,14.10
2010,08,11,01,06,14.10
2010,08,11,01,07,14.10
2010,08,11,01,08,14.10
2010,08,11,01,09,14.10
2010,08,11,01,10,14.00
2010,08,11,01,11,14.00
2010,08,11,01,12,14.00
2010,08,11,01,13,14.00
2010,08,11,01,14,14.00
2010,08,11,01,15,14.00
2010,08,11,01,16,14.00
2010,08,11,01,17,13.90
2010,08,11,01,18,13.90
2010,08,11,01,19,13.90
2010,08,11,01,20,13.90
2010,08,11,01,21,13.90
2010,08,11,01,22,13.90
2010,08,11,01,23,13.90
2010,08,11,01,24,13.90
2010,08,11,01,25,13.90
2010,08,11,01,26,13.90
2010,08,11,01,27,13.90
2010,08,11,01,28,13.90
2010,08,11,01,29,13.90
2010,08,11,01,30,13.90
2010,08,11,01,31,13.90
2010,08,11,01,32,13.90
2010,08,11,01,33,13.90
2010,08,11,01,34,13.90
2010,08,11,01,35,13.90
2010,08,11,01,36,13.90
2010,08,11,01,37,13.90
2010,08,11,01,38,13.90
2010,08,11,01,39,13.80
2010,08,11,01,40,13.80
2010,08,11,01,41,13.80
2010,08,11,01,42,13.80
2010,08,11,01,43,13.80
2010,08,11,01,44,13.80
2010,08,11,01,45,13.80
2010,08,11,01,46,13.80
2010,08,11,01,47,13.80
2010,08,11,01,48,13.80
2010,08,11,01,49,13.80
2010,08,11,01,50,13.80
2010,08,11,01,51,13.80
2010,08,11,01,52,13.80
2010,08,11,01,53,13.80
2010,08,11,01,54,13.80
2010,08,11,01,55,13.80
2010,08,11,01,56,13.70
2010,08,11,01,57,13.70
2010,08,11,01,58,13.70
2010,08,11,01,59,13.70
2010,08,11,02,00,13.70
2010,08,11,02,01,13.70
2010,08,11,02,02,13.70
2010,08,11,02,03,13.70
2010,08,11,02,04,13.70
2010,08,11,02,05,13.70
2010,08,11,02,06,13.70
2010,08,11,02,07,13.70
2010,08,11,02,08,13.60
2010,08,11,02,09,13.60
2010,08,11,02,10,13.60
2010,08,11,02,11,13.60
2010,08,11,02,12,13.60
2010,08,11,02,13,13.60
2010,08,11,02,14,13.60
2010,08,11,02,15,13.50
2010,08,11,02,16,13.50
2010,08,11,02,17,13.50
2010,08,11,02,18,13.50
2010,08,11,02,19,13.50
2010,08,11,02,20,13.50
2010,08,11,02,21,13.50
2010,08,11,02,22,13.50
2010,08,11,02,23,13.40
2010,08,11,02,24,13.40
2010,08,11,02,25,13.40
2010,08,11,02,26,13.40
2010,08,11,02,27,13.40
2010,08,11,02,28,13.40
2010,08,11,02,29,13.40
2010,08,11,02,30,13.30
2010,08,11,02,31,13.30
2010,08,11,02,32,13.30
2010,08,11,02,33,13.30
2010,08,11,02,34,13.30
2010,08,11,02,35,13.30
2010,08,11,02,36,13.30
2010,08,11,02,37,13.20
2010,08,11,02,38,13.20
2010,08,11,02,39,13.20
2010,08,11,02,40,13.20
2010,08,11,02,41,13.20
2010,08,11,02,42,13.20
2010,08,11,02,43,13.20
2010,08,11,02,44,13.20
2010,08,11,02,45,13.20
2010,08,11,02,46,13.20
2010,08,11,02,47,13.20
2010,08,11,02,48,13.20
2010,08,11,02,49,13.20
2010,08,11,02,50,13.20
2010,08,11,02,51,13.20
2010,08,11,02,52,13.20
2010,08,11,02,53,13.10
2010,08,11,02,54,13.10
2010,08,11,02,55,13.10
2010,08,11,02,56,13.10
2010,08,11,02,57,13.10
2010,08,11,02,58,13.10
2010,08,11,02,59,13.10
2010,08,11,03,00,13.10
2010,08,11,03,01,13.10
2010,08,11,03,02,13.10
2010,08,11,03,06,13.10
2010,08,11,03,07,13.10
2010,08,11,03,08,13.10
2010,08,11,03,09,13.10
2010,08,11,03,10,13.10
2010,08,11,03,11,13.20
2010,08,11,03,12,13.20
2010,08,11,03,13,13.20
2010,08,11,03,14,13.20
2010,08,11,03,15,13.20
2010,08,11,03,16,13.20
2010,08,11,03,17,13.20
2010,08,11,03,18,13.20
2010,08,11,03,19,13.20
2010,08,11,03,20,13.30
2010,08,11,03,21,13.30
2010,08,11,03,22,13.30
2010,08,11,03,23,13.30
2010,08,11,03,24,13.30
2010,08,11,03,25,13.40
2010,08,11,03,26,13.40
2010,08,11,03,27,13.40
2010,08,11,03,28,13.40
2010,08,11,03,29,13.40
2010,08,11,03,30,13.40
2010,08,11,03,31,13.40
2010,08,11,03,32,13.40
2010,08,11,03,33,13.40
2010,08,11,03,34,13.40
2010,08,11,03,35,13.40
2010,08,11,03,36,13.40
2010,08,11,03,37,13.40
2010,08,11,03,38,13.40
2010,08,11,03,39,13.40
2010,08,11,03,40,13.40
2010,08,11,03,41,13.40
2010,08,11,03,42,13.40
2010,08,11,03,43,13.40
2010,08,11,03,44,13.40
2010,08,11,03,45,13.50
2010,08,11,03,46,13.50
2010,08,11,03,47,13.50
2010,08,11,03,48,13.50
2010,08,11,03,49,13.50
2010,08,11,03,50,13.50
2010,08,11,03,51,13.50
2010,08,11,03,52,13.50
2010,08,11,03,53,13.40
2010,08,11,03,54,13.40
2010,08,11,03,55,13.40
2010,08,11,03,56,13.40
2010,08,11,03,57,13.40
2010,08,11,03,58,13.40
2010,08,11,03,59,13.40
2010,08,11,04,00,13.50
2010,08,11,04,01,13.50
2010,08,11,04,02,13.50
2010,08,11,04,03,13.50
2010,08,11,04,04,13.50
2010,08,11,04,05,13.60
2010,08,11,04,06,13.60
2010,08,11,04,07,13.60
2010,08,11,04,08,13.60
2010,08,11,04,09,13.60
2010,08,11,04,10,13.70
2010,08,11,04,11,13.70
2010,08,11,04,12,13.70
2010,08,11,04,13,13.80
2010,08,11,04,14,13.80
2010,08,11,04,15,13.80
2010,08,11,04,16,13.90
2010,08,11,04,17,14.00
2010,08,11,04,18,14.00
2010,08,11,04,19,14.00
2010,08,11,04,20,14.10
2010,08,11,04,21,14.10
2010,08,11,04,22,14.20
2010,08,11,04,23,14.20
2010,08,11,04,24,14.30
2010,08,11,04,25,14.40
2010,08,11,04,26,14.40
2010,08,11,04,27,14.50
2010,08,11,04,28,14.60
2010,08,11,04,29,14.70
2010,08,11,04,30,14.70
2010,08,11,04,31,14.80
2010,08,11,04,32,14.80
2010,08,11,04,33,14.80
2010,08,11,04,34,14.90
2010,08,11,04,35,14.90
2010,08,11,04,36,14.90
2010,08,11,04,37,14.90
2010,08,11,04,38,14.90
2010,08,11,04,39,14.90
2010,08,11,04,40,14.90
2010,08,11,04,41,14.90
2010,08,11,04,42,14.80
2010,08,11,04,43,14.80
2010,08,11,04,44,14.80
2010,08,11,04,45,14.80
2010,08,11,04,46,14.80
2010,08,11,04,47,14.80
2010,08,11,04,48,14.80
2010,08,11,04,49,14.70
2010,08,11,04,50,14.70
2010,08,11,04,51,14.70
2010,08,11,04,52,14.70
2010,08,11,04,53,14.70
2010,08,11,04,54,14.70
2010,08,11,04,55,14.70
2010,08,11,04,56,14.70
2010,08,11,04,57,14.70
2010,08,11,04,58,14.70
2010,08,11,04,59,14.70
2010,08,11,05,00,14.70
2010,08,11,05,01,14.70
2010,08,11,05,02,14.70
2010,08,11,05,03,14.60
2010,08,11,05,04,14.60
2010,08,11,05,05,14.60
2010,08,11,05,06,14.50
2010,08,11,05,07,14.50
2010,08,11,05,08,14.50
2010,08,11,05,09,14.40
2010,08,11,05,10,14.40
2010,08,11,05,11,14.40
2010,08,11,05,12,14.30
2010,08,11,05,13,14.30
2010,08,11,05,14,14.30
2010,08,11,05,15,14.20
2010,08,11,05,16,14.20
2010,08,11,05,17,14.10
2010,08,11,05,18,14.10
2010,08,11,05,19,14.00
2010,08,11,05,20,13.90
2010,08,11,05,21,13.90
2010,08,11,05,22,13.90
2010,08,11,05,23,13.80
2010,08,11,05,24,13.80
2010,08,11,05,25,13.80
2010,08,11,05,26,13.80
2010,08,11,05,27,13.80
2010,08,11,05,28,13.70
2010,08,11,05,29,13.70
2010,08,11,05,30,13.70
2010,08,11,05,31,13.70
2010,08,11,05,32,13.70
2010,08,11,05,33,13.70
2010,08,11,05,34,13.70
2010,08,11,05,35,13.70
2010,08,11,05,36,13.70
2010,08,11,05,37,13.80
2010,08,11,05,38,13.80
2010,08,11,05,39,13.80
2010,08,11,05,40,13.70
2010,08,11,05,41,13.70
2010,08,11,05,42,13.70
2010,08,11,05,43,13.70
2010,08,11,05,44,13.70
2010,08,11,05,45,13.70
2010,08,11,05,46,13.60
2010,08,11,05,47,13.60
2010,08,11,05,48,13.60
2010,08,11,05,49,13.60
2010,08,11,05,50,13.50
2010,08,11,05,51,13.50
2010,08,11,05,52,13.40
2010,08,11,05,53,13.40
2010,08,11,05,54,13.30
2010,08,11,05,55,13.30
2010,08,11,05,56,13.30
2010,08,11,05,57,13.20
2010,08,11,05,58,13.20
2010,08,11,05,59,13.20
2010,08,11,06,00,13.20
2010,08,11,06,01,13.10
2010,08,11,06,02,13.10
2010,08,11,06,03,13.10
2010,08,11,06,04,13.10
2010,08,11,06,05,13.10
2010,08,11,06,06,13.10
2010,08,11,06,07,13.10
2010,08,11,06,08,13.10
2010,08,11,06,09,13.10
2010,08,11,06,10,13.10
2010,08,11,06,11,13.10
2010,08,11,06,12,13.00
2010,08,11,06,13,13.00
2010,08,11,06,14,13.00
2010,08,11,06,15,13.00
2010,08,11,06,16,12.90
2010,08,11,06,17,12.90
2010,08,11,06,18,12.90
2010,08,11,06,19,12.90
2010,08,11,06,20,12.90
2010,08,11,06,21,12.90
2010,08,11,06,22,12.80
2010,08,11,06,23,12.80
2010,08,11,06,24,12.80
2010,08,11,06,25,12.80
2010,08,11,06,26,12.80
2010,08,11,06,27,12.80
2010,08,11,06,28,12.80
2010,08,11,06,29,12.80
2010,08,11,06,30,12.80
2010,08,11,06,31,12.80
2010,08,11,06,32,12.90
2010,08,11,06,33,12.90
2010,08,11,06,34,12.90
2010,08,11,06,35,12.90
2010,08,11,06,36,12.90
2010,08,11,06,37,12.90
2010,08,11,06,38,12.90
2010,08,11,06,39,12.90
2010,08,11,06,40,12.90
2010,08,11,06,41,13.00
2010,08,11,06,42,13.00
2010,08,11,06,43,13.00
2010,08,11,06,44,13.10
2010,08,11,06,45,13.10
2010,08,11,06,46,13.10
2010,08,11,06,47,13.20
2010,08,11,06,48,13.20
2010,08,11,06,49,13.30
2010,08,11,06,50,13.30
2010,08,11,06,51,13.30
2010,08,11,06,52,13.30
2010,08,11,06,53,13.40
2010,08,11,06,54,13.40
2010,08,11,06,55,13.40
2010,08,11,06,56,13.50
2010,08,11,06,57,13.50
2010,08,11,06,58,13.50
2010,08,11,06,59,13.50
2010,08,11,07,00,13.60
2010,08,11,07,01,13.60
2010,08,11,07,02,13.70
2010,08,11,07,03,13.70
2010,08,11,07,04,13.70
2010,08,11,07,05,13.80
2010,08,11,07,06,13.80
2010,08,11,07,07,13.80
2010,08,11,07,08,13.90
2010,08,11,07,09,13.90
2010,08,11,07,10,14.00
2010,08,11,07,11,14.00
2010,08,11,07,12,14.10
2010,08,11,07,13,14.20
2010,08,11,07,14,14.20
2010,08,11,07,15,14.30
2010,08,11,07,16,14.30
2010,08,11,07,17,14.40
2010,08,11,07,18,14.50
2010,08,11,07,19,14.70
2010,08,11,07,20,14.80
2010,08,11,07,21,15.00
2010,08,11,07,22,15.00
2010,08,11,07,23,15.00
2010,08,11,07,24,15.10
2010,08,11,07,25,15.20
2010,08,11,07,26,15.30
2010,08,11,07,27,15.40
2010,08,11,07,28,15.50
2010,08,11,07,29,15.50
2010,08,11,07,30,15.60
2010,08,11,07,31,15.70
2010,08,11,07,32,15.70
2010,08,11,07,33,15.80
2010,08,11,07,34,15.80
2010,08,11,07,35,15.90
2010,08,11,07,36,15.90
2010,08,11,07,37,16.00
2010,08,11,07,38,16.00
2010,08,11,07,39,16.10
2010,08,11,07,40,16.10
2010,08,11,07,41,16.20
2010,08,11,07,42,16.20
2010,08,11,07,43,16.20
2010,08,11,07,44,16.30
2010,08,11,07,45,16.30
2010,08,11,07,46,16.40
2010,08,11,07,47,16.40
2010,08,11,07,48,16.50
2010,08,11,07,49,16.60
2010,08,11,07,50,16.60
2010,08,11,07,51,16.70
2010,08,11,07,52,16.80
2010,08,11,07,53,16.80
2010,08,11,07,54,16.90
2010,08,11,07,55,16.90
2010,08,11,07,56,17.00
2010,08,11,07,57,17.10
2010,08,11,07,58,17.10
2010,08,11,07,59,17.20
2010,08,11,08,00,17.20
2010,08,11,08,01,17.30
2010,08,11,08,02,17.30
2010,08,11,08,03,17.40
2010,08,11,08,04,17.50
2010,08,11,08,05,17.50
2010,08,11,08,06,17.60
2010,08,11,08,07,17.60
2010,08,11,08,08,17.60
2010,08,11,08,09,17.70
2010,08,11,08,10,17.70
2010,08,11,08,11,17.70
2010,08,11,08,12,17.80
2010,08,11,08,13,17.80
2010,08,11,08,14,17.80
2010,08,11,08,15,17.90
2010,08,11,08,16,17.90
2010,08,11,08,17,17.90
2010,08,11,08,18,18.00
2010,08,11,08,19,18.00
2010,08,11,08,20,18.10
2010,08,11,08,21,18.10
2010,08,11,08,22,18.10
2010,08,11,08,23,18.10
2010,08,11,08,24,18.10
2010,08,11,08,25,18.20
2010,08,11,08,26,18.20
2010,08,11,08,27,18.20
2010,08,11,08,28,18.20
2010,08,11,08,29,18.20
2010,08,11,08,30,18.30
2010,08,11,08,31,18.30
2010,08,11,08,32,18.30
2010,08,11,08,33,18.30
2010,08,11,08,34,18.30
2010,08,11,08,35,18.30
2010,08,11,08,36,18.30
2010,08,11,08,37,18.30
2010,08,11,08,38,18.40
2010,08,11,08,39,18.40
2010,08,11,08,40,18.40
2010,08,11,08,41,18.50
2010,08,11,08,42,18.50
2010,08,11,08,43,18.60
2010,08,11,08,44,18.60
2010,08,11,08,45,18.60
2010,08,11,08,46,18.60
2010,08,11,08,47,18.60
2010,08,11,08,48,18.70
2010,08,11,08,49,18.70
2010,08,11,08,50,18.80
2010,08,11,08,51,18.80
2010,08,11,08,52,18.90
2010,08,11,08,53,18.90
2010,08,11,08,54,18.90
2010,08,11,08,55,18.90
2010,08,11,08,56,18.90
2010,08,11,08,57,19.00
2010,08,11,08,58,19.00
2010,08,11,08,59,19.10
2010,08,11,09,00,19.10
2010,08,11,09,01,19.10
2010,08,11,09,02,19.10
2010,08,11,09,03,19.10
2010,08,11,09,04,19.10
2010,08,11,09,05,19.20
2010,08,11,09,06,19.20
2010,08,11,09,07,19.10
2010,08,11,09,08,19.10
2010,08,11,09,09,19.10
2010,08,11,09,10,19.20
2010,08,11,09,11,19.20
2010,08,11,09,12,19.30
2010,08,11,09,13,19.30
2010,08,11,09,14,19.30
2010,08,11,09,15,19.30
2010,08,11,09,16,19.30
2010,08,11,09,17,19.30
2010,08,11,09,18,19.40
2010,08,11,09,19,19.50
2010,08,11,09,20,19.50
2010,08,11,09,21,19.60
2010,08,11,09,22,19.70
2010,08,11,09,23,19.70
2010,08,11,09,24,19.80
2010,08,11,09,25,19.80
2010,08,11,09,26,19.80
2010,08,11,09,27,19.80
2010,08,11,09,28,19.80
2010,08,11,09,29,19.80
2010,08,11,09,30,19.90
2010,08,11,09,31,19.90
2010,08,11,09,32,20.00
2010,08,11,09,33,20.00
2010,08,11,09,34,20.10
2010,08,11,09,35,20.10
2010,08,11,09,36,20.20
2010,08,11,09,37,20.20
2010,08,11,09,38,20.20
2010,08,11,09,39,20.20
2010,08,11,09,40,20.20
2010,08,11,09,41,20.20
2010,08,11,09,42,20.20
2010,08,11,09,43,20.20
2010,08,11,09,44,20.30
2010,08,11,09,45,20.30
2010,08,11,09,46,20.30
2010,08,11,09,47,20.30
2010,08,11,09,48,20.30
2010,08,11,09,49,20.30
2010,08,11,09,50,20.30
2010,08,11,09,51,20.30
2010,08,11,09,52,20.30
2010,08,11,09,53,20.40
2010,08,11,09,54,20.40
2010,08,11,09,55,20.50
2010,08,11,09,56,20.50
2010,08,11,09,57,20.40
2010,08,11,09,58,20.40
2010,08,11,09,59,20.40
2010,08,11,10,00,20.40
2010,08,11,10,01,20.30
2010,08,11,10,02,20.30
2010,08,11,10,03,20.30
2010,08,11,10,04,20.20
2010,08,11,10,05,20.20
2010,08,11,10,06,20.20
2010,08,11,10,07,20.20
2010,08,11,10,08,20.20
2010,08,11,10,09,20.20
2010,08,11,10,10,20.30
2010,08,11,10,11,20.30
2010,08,11,10,12,20.30
2010,08,11,10,13,20.40
2010,08,11,10,14,20.40
2010,08,11,10,15,20.40
2010,08,11,10,16,20.40
2010,08,11,10,17,20.50
2010,08,11,10,18,20.40
2010,08,11,10,19,20.50
2010,08,11,10,20,20.50
2010,08,11,10,21,20.50
2010,08,11,10,22,20.50
2010,08,11,10,23,20.50
2010,08,11,10,24,20.60
2010,08,11,10,25,20.50
2010,08,11,10,26,20.50
2010,08,11,10,27,20.50
2010,08,11,10,28,20.50
2010,08,11,10,29,20.60
2010,08,11,10,30,20.70
2010,08,11,10,31,20.70
2010,08,11,10,32,20.70
2010,08,11,10,33,20.70
2010,08,11,10,34,20.80
2010,08,11,10,35,20.80
2010,08,11,10,36,20.80
2010,08,11,10,37,20.80
2010,08,11,10,38,20.80
2010,08,11,10,39,20.70
2010,08,11,10,40,20.70
2010,08,11,10,41,20.80
2010,08,11,10,42,20.90
2010,08,11,10,43,21.00
2010,08,11,10,44,21.20
2010,08,11,10,45,21.20
2010,08,11,10,46,21.20
2010,08,11,10,47,21.10
2010,08,11,10,48,21.10
2010,08,11,10,49,21.00
2010,08,11,10,50,20.90
2010,08,11,10,51,20.80
2010,08,11,10,52,20.80
2010,08,11,10,53,20.80
2010,08,11,10,54,20.80
2010,08,11,10,55,20.80
2010,08,11,10,56,20.70
2010,08,11,10,57,20.70
2010,08,11,10,58,20.60
2010,08,11,10,59,20.60
2010,08,11,11,00,20.60
2010,08,11,11,01,20.60
2010,08,11,11,02,20.70
2010,08,11,11,03,20.80
2010,08,11,11,04,20.90
2010,08,11,11,05,21.00
2010,08,11,11,06,21.00
2010,08,11,11,07,21.00
2010,08,11,11,08,21.00
2010,08,11,11,09,21.10
2010,08,11,11,10,21.30
2010,08,11,11,11,21.40
2010,08,11,11,12,21.40
2010,08,11,11,13,21.30
2010,08,11,11,14,21.20
2010,08,11,11,15,21.10
2010,08,11,11,16,20.90
2010,08,11,11,17,20.80
2010,08,11,11,18,20.70
2010,08,11,11,19,20.70
2010,08,11,11,20,20.60
2010,08,11,11,21,20.50
2010,08,11,11,22,20.60
2010,08,11,11,23,20.60
2010,08,11,11,24,20.60
2010,08,11,11,25,20.70
2010,08,11,11,26,20.80
2010,08,11,11,27,20.80
2010,08,11,11,28,20.80
2010,08,11,11,29,20.90
2010,08,11,11,30,21.00
2010,08,11,11,31,21.10
2010,08,11,11,32,21.20
2010,08,11,11,33,21.20
2010,08,11,11,34,21.20
2010,08,11,11,35,21.30
2010,08,11,11,36,21.40
2010,08,11,11,37,21.40
2010,08,11,11,38,21.50
2010,08,11,11,39,21.50
2010,08,11,11,40,21.60
2010,08,11,11,41,21.60
2010,08,11,11,42,21.60
2010,08,11,11,43,21.60
2010,08,11,11,44,21.50
2010,08,11,11,45,21.40
2010,08,11,11,46,21.40
2010,08,11,11,47,21.40
2010,08,11,11,48,21.30
2010,08,11,11,49,21.10
2010,08,11,11,50,21.00
2010,08,11,11,51,20.90
2010,08,11,11,52,20.90
2010,08,11,11,53,20.80
2010,08,11,11,54,20.80
2010,08,11,11,55,20.80
2010,08,11,11,56,20.70
2010,08,11,11,57,20.80
2010,08,11,11,58,20.70
2010,08,11,11,59,20.50
2010,08,11,12,00,20.40
2010,08,11,12,01,20.40
2010,08,11,12,02,20.40
2010,08,11,12,03,20.40
2010,08,11,12,04,20.50
2010,08,11,12,05,20.60
2010,08,11,12,06,20.60
2010,08,11,12,07,20.60
2010,08,11,12,08,20.50
2010,08,11,12,09,20.40
2010,08,11,12,10,20.30
2010,08,11,12,11,20.30
2010,08,11,12,12,20.30
2010,08,11,12,13,20.30
2010,08,11,12,14,20.30
2010,08,11,12,15,20.30
2010,08,11,12,16,20.40
2010,08,11,12,17,20.50
2010,08,11,12,18,20.70
2010,08,11,12,19,20.70
2010,08,11,12,20,20.60
2010,08,11,12,21,20.60
2010,08,11,12,22,20.60
2010,08,11,12,23,20.60
2010,08,11,12,24,20.70
2010,08,11,12,25,20.90
2010,08,11,12,26,21.00
2010,08,11,12,27,21.10
2010,08,11,12,28,21.10
2010,08,11,12,29,21.10
2010,08,11,12,30,21.00
2010,08,11,12,31,21.10
2010,08,11,12,32,21.10
2010,08,11,12,33,21.10
2010,08,11,12,34,21.10
2010,08,11,12,35,21.00
2010,08,11,12,36,20.80
2010,08,11,12,37,20.80
2010,08,11,12,38,20.60
2010,08,11,12,39,20.40
2010,08,11,12,40,20.30
2010,08,11,12,41,20.20
2010,08,11,12,42,20.20
2010,08,11,12,43,20.20
2010,08,11,12,44,20.20
2010,08,11,12,45,20.20
2010,08,11,12,46,20.30
2010,08,11,12,47,20.30
2010,08,11,12,48,20.20
2010,08,11,12,49,20.00
2010,08,11,12,50,19.90
2010,08,11,12,51,19.90
2010,08,11,12,52,19.80
2010,08,11,12,53,19.80
2010,08,11,12,54,19.80
2010,08,11,12,55,19.90
2010,08,11,12,56,20.00
2010,08,11,12,57,20.10
2010,08,11,12,58,20.10
2010,08,11,12,59,20.10
2010,08,11,13,00,20.00
2010,08,11,13,01,20.00
2010,08,11,13,02,19.90
2010,08,11,13,03,19.90
2010,08,11,13,04,19.90
2010,08,11,13,05,19.90
2010,08,11,13,06,20.00
2010,08,11,13,07,20.10
2010,08,11,13,08,20.20
2010,08,11,13,09,20.40
2010,08,11,13,10,20.50
2010,08,11,13,11,20.60
2010,08,11,13,12,20.60
2010,08,11,13,13,20.60
2010,08,11,13,14,20.60
2010,08,11,13,15,20.60
2010,08,11,13,16,20.70
2010,08,11,13,17,20.90
2010,08,11,13,18,21.00
2010,08,11,13,19,20.90
2010,08,11,13,20,20.70
2010,08,11,13,21,20.60
2010,08,11,13,22,20.60
2010,08,11,13,23,20.60
2010,08,11,13,24,20.60
2010,08,11,13,25,20.60
2010,08,11,13,26,20.70
2010,08,11,13,27,20.60
2010,08,11,13,28,20.40
2010,08,11,13,29,20.30
2010,08,11,13,30,20.10
2010,08,11,13,31,20.00
2010,08,11,13,32,19.70
2010,08,11,13,33,19.70
2010,08,11,13,34,19.70
2010,08,11,13,35,19.70
2010,08,11,13,36,19.70
2010,08,11,13,37,19.70
2010,08,11,13,38,19.70
2010,08,11,13,39,19.80
2010,08,11,13,40,19.70
2010,08,11,13,41,19.60
2010,08,11,13,42,19.70
2010,08,11,13,43,19.70
2010,08,11,13,44,19.60
2010,08,11,13,45,19.60
2010,08,11,13,46,19.60
2010,08,11,13,47,19.60
2010,08,11,13,48,19.70
2010,08,11,13,49,19.80
2010,08,11,13,50,19.90
2010,08,11,13,51,19.90
2010,08,11,13,52,20.00
2010,08,11,13,53,20.00
2010,08,11,13,54,20.10
2010,08,11,13,55,20.20
2010,08,11,13,56,20.30
2010,08,11,13,57,20.20
2010,08,11,13,58,20.30
2010,08,11,13,59,20.30
2010,08,11,14,00,20.40
2010,08,11,14,01,20.50
2010,08,11,14,02,20.50
2010,08,11,14,03,20.50
2010,08,11,14,04,20.40
2010,08,11,14,05,20.20
2010,08,11,14,06,20.10
2010,08,11,14,07,20.10
2010,08,11,14,08,20.10
2010,08,11,14,09,20.10
2010,08,11,14,10,20.20
2010,08,11,14,11,20.20
2010,08,11,14,12,20.20
2010,08,11,14,13,20.20
2010,08,11,14,14,20.10
2010,08,11,14,15,20.00
2010,08,11,14,16,20.00
2010,08,11,14,17,20.20
2010,08,11,14,18,20.40
2010,08,11,14,19,20.50
2010,08,11,14,20,20.40
2010,08,11,14,21,20.40
2010,08,11,14,22,20.30
2010,08,11,14,23,20.40
2010,08,11,14,24,20.30
2010,08,11,14,25,20.40
2010,08,11,14,26,20.50
2010,08,11,14,27,20.60
2010,08,11,14,28,20.70
2010,08,11,14,29,20.70
2010,08,11,14,30,20.60
2010,08,11,14,31,20.60
2010,08,11,14,32,20.50
2010,08,11,14,33,20.30
2010,08,11,14,34,20.20
2010,08,11,14,35,20.30
2010,08,11,14,36,20.40
2010,08,11,14,37,20.50
2010,08,11,14,38,20.60
2010,08,11,14,39,20.70
2010,08,11,14,40,20.70
2010,08,11,14,41,20.70
2010,08,11,14,42,20.60
2010,08,11,14,43,20.50
2010,08,11,14,44,20.40
2010,08,11,14,45,20.30
2010,08,11,14,46,20.30
2010,08,11,14,47,20.30
2010,08,11,14,48,20.50
2010,08,11,14,49,20.70
2010,08,11,14,50,20.90
2010,08,11,14,51,21.10
2010,08,11,14,52,21.30
2010,08,11,14,53,21.40
2010,08,11,14,54,21.50
2010,08,11,14,55,21.50
2010,08,11,14,56,21.40
2010,08,11,14,57,21.40
2010,08,11,14,58,21.40
2010,08,11,14,59,21.40
2010,08,11,15,00,21.50
2010,08,11,15,01,21.50
2010,08,11,15,02,21.50
2010,08,11,15,03,21.60
2010,08,11,15,04,21.70
2010,08,11,15,05,21.80
2010,08,11,15,06,21.80
2010,08,11,15,07,21.80
2010,08,11,15,08,22.00
2010,08,11,15,09,22.00
2010,08,11,15,10,22.10
2010,08,11,15,11,22.00
2010,08,11,15,12,22.00
2010,08,11,15,13,22.00
2010,08,11,15,14,22.10
2010,08,11,15,15,22.00
2010,08,11,15,16,21.90
2010,08,11,15,17,21.90
2010,08,11,15,18,21.80
2010,08,11,15,19,21.80
2010,08,11,15,20,21.80
2010,08,11,15,21,21.80
2010,08,11,15,22,21.80
2010,08,11,15,23,21.70
2010,08,11,15,24,21.60
2010,08,11,15,25,21.60
2010,08,11,15,26,21.70
2010,08,11,15,27,21.60
2010,08,11,15,28,21.50
2010,08,11,15,29,21.30
2010,08,11,15,30,21.10
2010,08,11,15,31,20.90
2010,08,11,15,32,20.70
2010,08,11,15,33,20.70
2010,08,11,15,34,20.80
2010,08,11,15,35,21.10
2010,08,11,15,36,21.30
2010,08,11,15,37,21.50
2010,08,11,15,38,21.60
2010,08,11,15,39,21.80
2010,08,11,15,40,21.90
2010,08,11,15,41,22.10
2010,08,11,15,42,22.20
2010,08,11,15,43,22.10
2010,08,11,15,44,21.90
2010,08,11,15,45,21.70
2010,08,11,15,46,21.60
2010,08,11,15,47,21.60
2010,08,11,15,48,21.60
2010,08,11,15,49,21.70
2010,08,11,15,50,21.70
2010,08,11,15,51,21.70
2010,08,11,15,52,21.80
2010,08,11,15,53,21.80
2010,08,11,15,54,21.80
2010,08,11,15,55,22.00
2010,08,11,15,56,22.10
2010,08,11,15,57,22.10
2010,08,11,15,58,22.30
2010,08,11,15,59,22.40
2010,08,11,16,00,22.50
2010,08,11,16,01,22.50
2010,08,11,16,02,22.40
2010,08,11,16,03,22.20
2010,08,11,16,04,22.20
2010,08,11,16,05,22.20
2010,08,11,16,06,22.10
2010,08,11,16,07,22.10
2010,08,11,16,08,22.10
2010,08,11,16,09,22.20
2010,08,11,16,10,22.30
2010,08,11,16,11,22.30
2010,08,11,16,12,22.30
2010,08,11,16,13,22.20
2010,08,11,16,14,22.20
2010,08,11,16,15,22.20
2010,08,11,16,16,22.30
2010,08,11,16,17,22.20
2010,08,11,16,18,22.30
2010,08,11,16,19,22.20
2010,08,11,16,20,22.20
2010,08,11,16,21,22.10
2010,08,11,16,22,22.10
2010,08,11,16,23,22.20
2010,08,11,16,24,22.30
2010,08,11,16,25,22.40
2010,08,11,16,26,22.50
2010,08,11,16,27,22.70
2010,08,11,16,28,22.70
2010,08,11,16,29,22.70
2010,08,11,16,30,22.70
2010,08,11,16,31,22.70
2010,08,11,16,32,22.60
2010,08,11,16,33,22.50
2010,08,11,16,34,22.50
2010,08,11,16,35,22.60
2010,08,11,16,36,22.70
2010,08,11,16,37,22.70
2010,08,11,16,38,22.60
2010,08,11,16,39,22.40
2010,08,11,16,40,22.30
2010,08,11,16,41,22.30
2010,08,11,16,42,22.20
2010,08,11,16,43,22.10
2010,08,11,16,44,22.10
2010,08,11,16,45,22.10
2010,08,11,16,46,22.20
2010,08,11,16,47,22.20
2010,08,11,16,48,22.30
2010,08,11,16,49,22.30
2010,08,11,16,50,22.30
2010,08,11,16,51,22.20
2010,08,11,16,52,22.10
2010,08,11,16,53,22.20
2010,08,11,16,54,22.20
2010,08,11,16,55,22.30
2010,08,11,16,56,22.30
2010,08,11,16,57,22.40
2010,08,11,16,58,22.40
2010,08,11,16,59,22.40
2010,08,11,17,00,22.50
2010,08,11,17,01,22.60
2010,08,11,17,02,22.80
2010,08,11,17,03,22.80
2010,08,11,17,04,22.80
2010,08,11,17,05,22.80
2010,08,11,17,06,22.60
2010,08,11,17,07,22.40
2010,08,11,17,08,22.20
2010,08,11,17,09,22.10
2010,08,11,17,10,22.20
2010,08,11,17,11,22.20
2010,08,11,17,12,22.30
2010,08,11,17,13,22.40
2010,08,11,17,14,22.50
2010,08,11,17,15,22.60
2010,08,11,17,16,22.70
2010,08,11,17,17,22.70
2010,08,11,17,18,22.80
2010,08,11,17,19,22.80
2010,08,11,17,20,22.90
2010,08,11,17,21,22.80
2010,08,11,17,22,22.80